When you browse on this site, cookies collect data to enhance your experience and personalize the content and advertising you see.
Visit our Privacy Policy to learn more. By continuing to use the site, you agree to this use of cookies and data.
  • En España
  • Lista de países
  • Para 7 días
  • Temperatura del agua
  • Mapa Satelital
  • El tiempo en el mapa
  • Informadores
  • user-avatar
    Iniciar sesión

    Tiempo cada hora Manzini

    Hoy, 22 Abril, Lunes

    Tiempo Temperatura Precipitaciones Viento Presión Humedad
    00:00 +18°C° 0 mm 1 mps 709 mmHg 94%
    01:00 +18°C° 0 mm 1 mps 709 mmHg 94%
    02:00 +16°C° 0 mm 1 mps 709 mmHg 94%
    03:00 +18°C° 0 mm 1 mps 709 mmHg 92%
    04:00 +18°C° 0 mm 1 mps 709 mmHg 90%
    05:00 +18°C° 0 mm 1 mps 709 mmHg 88%
    06:00 +19°C° 0 mm 1 mps 710 mmHg 85%
    07:00 +19°C° 0 mm 1 mps 710 mmHg 83%
    08:00 +20°C° 0 mm 1 mps 710 mmHg 81%
    09:00 +21°C° 0 mm 1 mps 710 mmHg 75%
    10:00 +23°C° 0 mm 1 mps 710 mmHg 69%
    11:00 +24°C° 0 mm 2 mps 710 mmHg 64%
    12:00 +25°C° 0 mm 2 mps 710 mmHg 61%
    13:00 +25°C° 0 mm 2 mps 710 mmHg 58%
    14:00 +25°C° 0 mm 1 mps 709 mmHg 61%
    15:00 +25°C° 0 mm 1 mps 709 mmHg 64%
    16:00 +24°C° 0 mm 1 mps 709 mmHg 67%
    17:00 +24°C° 0 mm 1 mps 709 mmHg 70%
    18:00 +22°C° 0 mm 1 mps 709 mmHg 77%
    19:00 +21°C° 0 mm 1 mps 709 mmHg 85%
    20:00 +17°C° 0 mm 0 mps 709 mmHg 92%
    21:00 +17°C° 0 mm 0 mps 709 mmHg 93%
    22:00 +17°C° 0 mm 0 mps 709 mmHg 95%
    23:00 +17°C° 0 mm 0 mps 709 mmHg 96%

    Mañana, 23 Abril, Martes

    Tiempo Temperatura Precipitaciones Viento Presión Humedad
    00:00 +17°C° 0.1 mm 0 mps 709 mmHg 96%
    01:00 +17°C° 0.1 mm 0 mps 709 mmHg 96%
    02:00 +17°C° 0.1 mm 0 mps 709 mmHg 96%
    03:00 +17°C° 0 mm 0 mps 709 mmHg 96%
    04:00 +17°C° 0 mm 0 mps 709 mmHg 96%
    05:00 +17°C° 0 mm 0 mps 709 mmHg 96%
    06:00 +18°C° 0 mm 0 mps 709 mmHg 93%
    07:00 +18°C° 0 mm 0 mps 710 mmHg 89%
    08:00 +21°C° 0 mm 1 mps 710 mmHg 86%
    09:00 +22°C° 0.1 mm 1 mps 710 mmHg 79%
    10:00 +24°C° 0.1 mm 1 mps 710 mmHg 72%
    11:00 +25°C° 0.1 mm 1 mps 711 mmHg 65%
    12:00 +26°C° 0 mm 2 mps 710 mmHg 61%
    13:00 +27°C° 0 mm 2 mps 710 mmHg 58%
    14:00 +27°C° 0 mm 2 mps 709 mmHg 55%
    15:00 +26°C° 0 mm 2 mps 709 mmHg 60%
    16:00 +25°C° 0 mm 2 mps 709 mmHg 65%
    17:00 +24°C° 0 mm 3 mps 709 mmHg 70%
    18:00 +23°C° 0.1 mm 2 mps 709 mmHg 78%
    19:00 +22°C° 0.1 mm 1 mps 710 mmHg 86%
    20:00 +20°C° 0.1 mm 1 mps 710 mmHg 94%
    21:00 +20°C° 0.1 mm 1 mps 710 mmHg 95%
    22:00 +20°C° 0.1 mm 1 mps 710 mmHg 96%
    23:00 +18°C° 0.1 mm 0 mps 710 mmHg 97%

    Pasado mañana, 24 Abril, Miércoles

    Tiempo Temperatura Precipitaciones Viento Presión Humedad
    00:00 +18°C° 0 mm 0 mps 710 mmHg 97%
    01:00 +18°C° 0 mm 0 mps 710 mmHg 96%
    02:00 +18°C° 0 mm 0 mps 710 mmHg 96%
    03:00 +17°C° 0 mm 0 mps 709 mmHg 96%
    04:00 +17°C° 0 mm 0 mps 709 mmHg 96%
    05:00 +17°C° 0 mm 0 mps 709 mmHg 95%
    06:00 +18°C° 0 mm 0 mps 709 mmHg 90%
    07:00 +19°C° 0 mm 0 mps 710 mmHg 85%
    08:00 +20°C° 0 mm 0 mps 710 mmHg 80%
    09:00 +24°C° 0 mm 1 mps 710 mmHg 71%
    10:00 +26°C° 0 mm 1 mps 710 mmHg 62%
    11:00 +28°C° 0 mm 2 mps 710 mmHg 53%
    12:00 +29°C° 0 mm 2 mps 710 mmHg 51%
    13:00 +29°C° 0 mm 3 mps 709 mmHg 49%
    14:00 +30°C° 0 mm 3 mps 708 mmHg 47%
    15:00 +29°C° 0 mm 3 mps 708 mmHg 53%
    16:00 +27°C° 0 mm 3 mps 708 mmHg 58%
    17:00 +26°C° 0 mm 3 mps 708 mmHg 63%
    18:00 +25°C° 0 mm 2 mps 708 mmHg 73%
    19:00 +23°C° 0 mm 1 mps 708 mmHg 83%
    20:00 +21°C° 0 mm 1 mps 708 mmHg 93%
    21:00 +21°C° 0.1 mm 1 mps 709 mmHg 93%
    22:00 +21°C° 0.1 mm 1 mps 709 mmHg 94%
    23:00 +21°C° 0.1 mm 1 mps 709 mmHg 95%

    25 Abril, Jueves

    Tiempo Temperatura Precipitaciones Viento Presión Humedad
    00:00 +21°C° 0.1 mm 1 mps 709 mmHg 95%
    01:00 +19°C° 0.1 mm 0 mps 708 mmHg 96%
    02:00 +18°C° 0.1 mm 0 mps 708 mmHg 97%
    03:00 +20°C° 0 mm 1 mps 708 mmHg 96%
    04:00 +20°C° 0 mm 1 mps 708 mmHg 96%
    05:00 +20°C° 0 mm 1 mps 708 mmHg 95%
    06:00 +21°C° 0 mm 1 mps 708 mmHg 90%
    07:00 +22°C° 0 mm 1 mps 708 mmHg 85%
    08:00 +23°C° 0 mm 1 mps 708 mmHg 79%
    09:00 +25°C° 0 mm 1 mps 708 mmHg 69%
    10:00 +27°C° 0 mm 2 mps 708 mmHg 59%
    11:00 +30°C° 0 mm 2 mps 708 mmHg 49%
    12:00 +31°C° 0 mm 2 mps 707 mmHg 46%
    13:00 +31°C° 0 mm 3 mps 706 mmHg 43%
    14:00 +33°C° 0 mm 3 mps 705 mmHg 40%
    15:00 +31°C° 0 mm 2 mps 705 mmHg 46%
    16:00 +29°C° 0 mm 2 mps 705 mmHg 52%
    17:00 +27°C° 0 mm 1 mps 705 mmHg 57%
    18:00 +26°C° 0.6 mm 1 mps 705 mmHg 63%
    19:00 +25°C° 0.6 mm 1 mps 705 mmHg 68%
    20:00 +23°C° 0.6 mm 1 mps 706 mmHg 73%
    21:00 +22°C° 1 mm 1 mps 706 mmHg 77%
    22:00 +21°C° 1 mm 1 mps 706 mmHg 82%
    23:00 +21°C° 1 mm 1 mps 706 mmHg 87%

    26 Abril, Viernes

    Tiempo Temperatura Precipitaciones Viento Presión Humedad
    00:00 +20°C° 0.1 mm 1 mps 706 mmHg 86%
    01:00 +20°C° 0.1 mm 1 mps 705 mmHg 86%
    02:00 +20°C° 0.1 mm 1 mps 705 mmHg 86%
    03:00 +20°C° 0 mm 1 mps 705 mmHg 87%
    04:00 +20°C° 0 mm 1 mps 705 mmHg 88%
    05:00 +19°C° 0 mm 1 mps 705 mmHg 88%
    06:00 +20°C° 0 mm 1 mps 706 mmHg 83%
    07:00 +21°C° 0 mm 1 mps 706 mmHg 78%
    08:00 +22°C° 0 mm 1 mps 707 mmHg 72%
    09:00 +24°C° 0 mm 1 mps 707 mmHg 62%
    10:00 +27°C° 0 mm 1 mps 707 mmHg 51%
    11:00 +29°C° 0 mm 1 mps 707 mmHg 40%
    12:00 +30°C° 0 mm 2 mps 707 mmHg 37%
    13:00 +30°C° 0 mm 2 mps 706 mmHg 34%
    14:00 +31°C° 0 mm 2 mps 706 mmHg 30%
    15:00 +29°C° 0 mm 3 mps 706 mmHg 41%
    16:00 +27°C° 0 mm 3 mps 705 mmHg 52%
    17:00 +25°C° 0 mm 3 mps 705 mmHg 63%
    18:00 +24°C° 0 mm 2 mps 706 mmHg 72%
    19:00 +23°C° 0 mm 1 mps 707 mmHg 80%
    20:00 +21°C° 0 mm 1 mps 707 mmHg 89%
    21:00 +19°C° 0 mm 0 mps 707 mmHg 91%
    22:00 +18°C° 0 mm 0 mps 707 mmHg 93%
    23:00 +18°C° 0 mm 0 mps 707 mmHg 96%

    27 Abril, Sábado

    Tiempo Temperatura Precipitaciones Viento Presión Humedad
    00:00 +18°C° 0 mm 0 mps 707 mmHg 96%
    01:00 +17°C° 0 mm 0 mps 707 mmHg 96%
    02:00 +17°C° 0 mm 0 mps 707 mmHg 96%
    03:00 +17°C° 0 mm 0 mps 707 mmHg 96%
    04:00 +17°C° 0 mm 0 mps 707 mmHg 97%
    05:00 +17°C° 0 mm 0 mps 707 mmHg 97%
    06:00 +18°C° 0 mm 0 mps 708 mmHg 93%
    07:00 +19°C° 0 mm 0 mps 708 mmHg 88%
    08:00 +20°C° 0 mm 0 mps 709 mmHg 84%
    09:00 +21°C° 0 mm 0 mps 709 mmHg 76%
    10:00 +25°C° 0 mm 1 mps 709 mmHg 68%
    11:00 +27°C° 0 mm 1 mps 709 mmHg 59%
    12:00 +27°C° 0 mm 1 mps 708 mmHg 59%
    13:00 +27°C° 0 mm 2 mps 708 mmHg 58%
    14:00 +27°C° 0 mm 2 mps 707 mmHg 57%
    15:00 +26°C° 0 mm 2 mps 707 mmHg 61%
    16:00 +26°C° 0 mm 2 mps 707 mmHg 64%
    17:00 +25°C° 0 mm 1 mps 707 mmHg 67%
    18:00 +24°C° 0 mm 1 mps 708 mmHg 71%
    19:00 +23°C° 0 mm 1 mps 708 mmHg 74%
    20:00 +22°C° 0 mm 1 mps 709 mmHg 78%
    21:00 +21°C° 0 mm 1 mps 709 mmHg 82%
    22:00 +19°C° 0 mm 0 mps 709 mmHg 87%
    23:00 +18°C° 0 mm 0 mps 709 mmHg 91%
    Mostrar más